[[{"header":{"parameterUnit":"m.s-1","parameterCategory":1,"la1":30.2991,"la2":30.254,"lo1":-89.0895,"lo2":-89.0444,"dy":0.0017,"dx":0.0017,"nx":28,"ny":28,"refTime":"2025-11-20T09:00:00:Z","depth":0,"parameterNumber":2,"parameterNumberName":"U-component_of_WINDS"},"data":[0,0,0,0,0,0,0,0,0,0,0,0,0,0,0,0,0,0,0,0,0,0,0,0,0,0,0,0,0,0,0,0,0,0,0,0,0,0,0,0,0,0,0,0,0,0,0,0,0,0,0,0,0,0,0,0,0,0,-0.7763,-0.7763,0,-0.7731,-0.7731,-0.773,-0.7724,-0.7724,-0.7725,-0.7725,-0.769,-0.7689,-0.7688,0,0,0,0,0,0,0,0,0,0,0,0,0,-0.7816,-0.7816,-0.7763,-0.7763,-0.7762,-0.7731,-0.7731,-0.773,-0.7724,-0.7724,-0.7725,-0.7725,-0.769,-0.7689,-0.7687,0,0,0,0,0,0,0,0,0,0,0,0,0,-0.779,-0.7815,-0.7763,-0.7756,-0.7755,-0.7731,-0.7731,-0.773,-0.7724,-0.7724,-0.7725,-0.7725,-0.7691,-0.7689,-0.7687,-0.7669,0,0,-0.7682,-0.7681,0,0,0,0,0,0,0,0,-0.7791,-0.7788,-0.7757,-0.7756,-0.7755,-0.7732,-0.7737,-0.771,-0.7724,-0.7736,-0.7725,-0.7725,-0.7703,-0.7701,-0.7694,-0.7667,-0.7666,-0.7682,-0.7681,-0.768,-0.7679,0,0,0,0,0,0,0,-0.7793,-0.7789,-0.7751,-0.7757,-0.7755,-0.7753,-0.775,-0.7732,-0.7718,-0.7735,-0.7734,-0.773,-0.7703,-0.7695,-0.7693,-0.7665,-0.7682,-0.768,-0.7679,-0.7678,-0.7621,-0.762,0,0,0,0,0,0,-0.7797,-0.7791,-0.7752,-0.775,-0.7774,-0.7752,-0.7748,-0.7739,-0.7718,-0.7715,-0.773,-0.773,-0.7698,-0.7695,-0.7692,-0.7668,-0.768,-0.7678,-0.7677,-0.7621,-0.7621,-0.762,0,0,0,0,0,0,-0.7798,-0.7793,-0.7753,-0.777,-0.7765,-0.775,-0.774,-0.7738,-0.7731,-0.7715,-0.7712,-0.7725,-0.7698,-0.7694,-0.7674,-0.7666,-0.7678,-0.7676,-0.7622,-0.7621,-0.762,-0.762,0,0,0,0,0,0,-0.7799,-0.7794,-0.7787,-0.777,-0.7764,-0.7737,-0.774,-0.7737,-0.7728,-0.7728,-0.7709,-0.7706,-0.7698,-0.7677,-0.7673,-0.7664,-0.7675,-0.7622,-0.7621,-0.7621,-0.7621,-0.762,-0.7619,0,0,0,0,0,-0.7801,-0.7788,-0.7787,-0.7782,-0.7755,-0.7736,-0.7733,-0.7724,-0.7727,-0.772,-0.771,-0.7707,-0.7668,-0.7675,-0.767,-0.7661,-0.7623,-0.7622,-0.7621,-0.7622,-0.762,-0.7619,0,0,0,0,0,0,-0.7804,-0.7786,-0.7784,-0.7765,-0.7753,-0.7735,-0.7726,-0.7723,-0.7709,-0.7709,-0.7699,-0.7695,-0.7675,-0.7666,-0.7674,-0.7642,-0.7646,-0.7643,-0.7648,-0.7646,-0.7645,-0.7647,-0.7673,0,0,0,0,0,-0.7803,-0.779,-0.7774,-0.7759,-0.7753,-0.7741,-0.7732,-0.7727,-0.7713,-0.7707,-0.7695,-0.7681,-0.7666,-0.7656,-0.7641,-0.762,-0.7615,-0.7611,-0.761,-0.7609,-0.7607,-0.7594,-0.7592,-0.7616,-0.7617,-0.7617,0,0,-0.7799,-0.7788,-0.778,-0.7759,-0.7749,-0.7734,-0.7736,-0.7721,-0.771,-0.7705,-0.7685,-0.7676,-0.766,-0.7639,-0.763,-0.7631,-0.76,-0.7608,-0.7607,-0.7606,-0.7593,-0.7591,-0.7589,-0.7616,-0.7616,-0.7616,0,0,-0.7786,-0.7776,-0.7762,-0.7752,-0.7736,-0.7728,-0.7725,-0.7708,-0.7702,-0.7682,-0.7678,-0.7664,-0.7638,-0.7626,-0.7617,-0.7599,-0.7595,-0.7594,-0.7587,-0.7575,-0.7573,-0.7571,-0.7564,-0.7561,-0.7592,-0.7592,-0.7592,0,-0.7783,-0.7763,-0.7755,-0.774,-0.773,-0.7726,-0.7711,-0.7701,-0.7681,-0.7674,-0.7676,-0.7643,-0.7631,-0.7607,-0.7603,-0.7596,-0.7591,-0.7596,-0.7574,-0.7572,-0.7571,-0.7563,-0.756,-0.7592,-0.7592,-0.7592,-0.7592,0,-0.776,-0.7745,-0.7736,-0.7717,-0.7706,-0.7691,-0.7681,-0.7671,-0.7666,-0.7658,-0.7637,-0.7624,-0.7605,-0.76,-0.7595,-0.7575,-0.7576,-0.7577,-0.758,-0.7568,-0.7561,-0.7558,-0.7592,-0.7592,-0.7592,-0.7592,0,0,-0.7747,-0.7724,-0.772,-0.7711,-0.7694,-0.7682,-0.7666,-0.7649,-0.764,-0.7627,-0.7612,-0.7591,-0.7591,-0.758,-0.7574,-0.7563,-0.7548,-0.7565,-0.7564,-0.7561,-0.7524,-0.7523,-0.752,-0.7546,-0.7546,-0.7545,-0.7525,0,-0.773,-0.7703,-0.7695,-0.7672,-0.7658,-0.7653,-0.7639,-0.7626,-0.7618,-0.7604,-0.7594,-0.7579,-0.7581,-0.7574,-0.7563,-0.7552,-0.754,-0.7554,-0.7532,-0.7531,-0.7535,-0.7516,-0.7515,-0.7496,-0.7522,-0.7521,-0.7521,0,-0.7707,-0.7693,-0.7668,-0.7652,-0.7646,-0.7634,-0.7617,-0.7604,-0.7589,-0.7583,-0.7571,-0.7566,-0.7549,-0.7554,-0.753,-0.7539,-0.753,-0.7523,-0.7522,-0.7518,-0.7525,-0.7511,-0.749,-0.7487,-0.7517,-0.7517,-0.7517,0,-0.7698,-0.7674,-0.7655,-0.7648,-0.7629,-0.762,-0.7611,-0.7597,-0.7587,-0.7572,-0.7565,-0.7548,-0.7538,-0.7525,-0.7515,-0.752,-0.7491,-0.7496,-0.7485,-0.7485,-0.7478,-0.7478,-0.7454,-0.7474,-0.7474,-0.7474,-0.7474,0,-0.768,-0.7665,-0.7651,-0.764,-0.7622,-0.7614,-0.7596,-0.7587,-0.7574,-0.756,-0.7555,-0.7542,-0.7531,-0.7516,-0.7508,-0.7488,-0.7484,-0.7478,-0.7476,-0.7478,-0.7478,-0.747,-0.7471,-0.7473,-0.7473,-0.7473,-0.7474,0,-0.7667,-0.7658,-0.7637,-0.762,-0.7616,-0.7604,-0.7589,-0.7577,-0.7569,-0.7551,-0.7546,-0.7533,-0.7515,-0.7504,-0.7481,-0.7476,-0.7453,-0.7452,-0.7459,-0.7457,-0.7446,-0.7447,-0.7415,-0.741,-0.7435,-0.7435,-0.7434,0,-0.7655,-0.7643,-0.7626,-0.7616,-0.7607,-0.7592,-0.7582,-0.7573,-0.7562,-0.7544,-0.7534,-0.7516,-0.7501,-0.7473,-0.746,-0.7442,-0.744,-0.743,-0.7437,-0.7439,-0.7438,-0.7439,-0.7437,-0.7428,-0.7428,-0.7428,-0.7428,0,-0.7635,-0.7631,-0.7617,-0.76,-0.7588,-0.7575,-0.7561,-0.7554,-0.7542,-0.753,-0.7512,-0.7501,-0.7477,-0.7459,-0.744,-0.743,-0.7427,-0.7426,-0.7422,-0.7423,-0.7427,-0.7423,-0.7454,-0.7426,-0.7427,-0.7427,-0.7427,-0.7427,-0.7621,-0.761,-0.7596,-0.758,-0.7569,-0.7556,-0.7544,-0.7534,-0.7519,-0.75,-0.7496,-0.7476,-0.7461,-0.7435,-0.7425,-0.7409,-0.741,-0.7405,-0.7404,-0.7402,-0.7401,-0.7431,-0.7406,-0.7406,-0.7406,-0.7406,-0.7406,0,-0.76,-0.759,-0.7576,-0.7557,-0.7544,-0.7543,-0.7528,-0.7517,-0.75,-0.7486,-0.7472,-0.745,-0.7432,-0.7419,-0.74,-0.739,-0.7388,-0.7385,-0.7385,-0.7383,-0.7402,-0.7406,-0.7387,-0.7387,-0.7387,-0.7387,-0.7387,-0.7387,-0.7587,-0.7568,-0.7562,-0.7537,-0.7527,-0.7508,-0.75,-0.7488,-0.7477,-0.7453,-0.7438,-0.743,-0.7416,-0.7396,-0.7379,-0.7375,-0.7368,-0.7366,-0.7362,-0.7379,-0.7381,-0.7383,-0.7387,-0.7365,-0.7365,-0.7344,-0.7343,-0.7343]},{"header":{"parameterUnit":"m.s-1","parameterCategory":1,"la1":30.2991,"la2":30.254,"lo1":-89.0895,"lo2":-89.0444,"dy":0.0017,"dx":0.0017,"nx":28,"ny":28,"refTime":"2025-11-20T09:00:00:Z","depth":0,"parameterNumber":3,"parameterNumberName":"V-component_of_WINDS"},"data":[0,0,0,0,0,0,0,0,0,0,0,0,0,0,0,0,0,0,0,0,0,0,0,0,0,0,0,0,0,0,0,0,0,0,0,0,0,0,0,0,0,0,0,0,0,0,0,0,0,0,0,0,0,0,0,0,0,0,3.7977,3.7978,0,3.8083,3.8084,3.8085,3.8078,3.8077,3.8075,3.8074,3.8181,3.8185,3.8189,0,0,0,0,0,0,0,0,0,0,0,0,0,3.7768,3.7772,3.7977,3.7978,3.7979,3.8082,3.8084,3.8085,3.8079,3.8077,3.8075,3.8073,3.8179,3.8184,3.8189,0,0,0,0,0,0,0,0,0,0,0,0,0,3.7865,3.7773,3.7976,3.7988,3.7991,3.8082,3.8084,3.8086,3.8079,3.8077,3.8074,3.8072,3.8177,3.8184,3.819,3.8276,0,0,3.821,3.8212,0,0,0,0,0,0,0,0,3.7859,3.7872,3.7985,3.7988,3.799,3.8065,3.8049,3.8149,3.808,3.8045,3.8074,3.8071,3.8144,3.8153,3.8178,3.8281,3.8285,3.821,3.8214,3.8217,3.8219,0,0,0,0,0,0,0,3.7853,3.7868,3.8018,3.7987,3.799,3.7988,3.8,3.8068,3.8106,3.8048,3.8048,3.8061,3.8145,3.8172,3.818,3.8287,3.821,3.8216,3.822,3.8222,3.8469,3.8471,0,0,0,0,0,0,3.7843,3.7862,3.8015,3.8022,3.7918,3.7994,3.8007,3.8043,3.8105,3.8113,3.8063,3.806,3.8162,3.8173,3.8184,3.8291,3.8217,3.8223,3.8226,3.8466,3.8469,3.8472,0,0,0,0,0,0,3.7839,3.7857,3.8011,3.7942,3.7962,3.8,3.8041,3.8047,3.8074,3.8116,3.8123,3.8083,3.816,3.8175,3.8254,3.8295,3.8226,3.8231,3.8463,3.8467,3.8471,3.8505,0,0,0,0,0,0,3.7833,3.7856,3.7889,3.7943,3.7965,3.8079,3.8044,3.805,3.8085,3.8082,3.8137,3.8144,3.816,3.8244,3.826,3.8302,3.8237,3.8459,3.8465,3.847,3.85,3.8509,3.8517,0,0,0,0,0,3.7826,3.7893,3.789,3.7909,3.8007,3.8082,3.8094,3.8111,3.8088,3.8122,3.815,3.8143,3.8287,3.8252,3.827,3.8315,3.8457,3.8463,3.8469,3.8496,3.8508,3.8517,0,0,0,0,0,0,3.7841,3.79,3.7898,3.7985,3.8029,3.808,3.8124,3.8122,3.8173,3.8168,3.8186,3.8199,3.8279,3.8304,3.8265,3.8403,3.8369,3.8379,3.8384,3.8395,3.8403,3.8396,3.8242,0,0,0,0,0,3.7855,3.7911,3.7959,3.8031,3.8053,3.8085,3.8117,3.8127,3.8172,3.8191,3.8224,3.8268,3.8324,3.836,3.8413,3.8503,3.8516,3.8542,3.8551,3.8558,3.8567,3.8619,3.8632,3.8492,3.8492,3.8492,0,0,3.7884,3.7923,3.7957,3.8035,3.807,3.8128,3.81,3.8161,3.8205,3.82,3.8278,3.8303,3.8354,3.844,3.8479,3.8463,3.8608,3.8566,3.8571,3.8576,3.8627,3.864,3.8652,3.8496,3.8496,3.8495,0,0,3.7966,3.8,3.8066,3.8102,3.8155,3.8176,3.8192,3.8245,3.8262,3.834,3.8339,3.839,3.8484,3.8522,3.8553,3.8651,3.8648,3.8668,3.8714,3.8764,3.8775,3.8785,3.8823,3.8836,3.8676,3.8676,3.8676,0,3.7995,3.8083,3.8099,3.8163,3.8198,3.8197,3.8264,3.8297,3.8365,3.839,3.8371,3.8492,3.8526,3.8621,3.8646,3.867,3.8689,3.8663,3.8772,3.8782,3.8792,3.8828,3.8842,3.8679,3.8678,3.8678,3.8678,0,3.8117,3.8178,3.8224,3.8292,3.8332,3.8396,3.8423,3.8461,3.8467,3.849,3.8571,3.8611,3.8674,3.8697,3.8702,3.8794,3.8783,3.8768,3.8735,3.8807,3.8842,3.8856,3.8682,3.8681,3.868,3.868,0,0,3.8213,3.829,3.8307,3.8339,3.8399,3.8446,3.8511,3.8573,3.8607,3.8654,3.871,3.8791,3.8778,3.8814,3.8823,3.8867,3.8946,3.8847,3.8849,3.8867,3.9053,3.9066,3.9082,3.8943,3.8946,3.8948,3.905,0,3.8304,3.8421,3.8438,3.8541,3.8598,3.8598,3.8655,3.8698,3.8721,3.8773,3.8798,3.8857,3.8833,3.8856,3.8899,3.8927,3.8984,3.892,3.8997,3.9,3.8987,3.91,3.9113,3.9208,3.9063,3.9065,3.9067,0,3.8426,3.8479,3.8587,3.8642,3.8666,3.8717,3.8777,3.8826,3.8875,3.8889,3.893,3.8935,3.9003,3.8965,3.906,3.9016,3.9048,3.9067,3.9071,3.9081,3.904,3.9115,3.9238,3.9253,3.9088,3.9086,3.9085,0,3.8489,3.8586,3.8665,3.8692,3.8756,3.8792,3.8821,3.8867,3.8905,3.8956,3.8981,3.904,3.9072,3.9118,3.9139,3.9109,3.9233,3.9197,3.9248,3.9248,3.9276,3.9275,3.9409,3.9292,3.9292,3.9292,3.9291,0,3.8591,3.8658,3.8695,3.8743,3.8819,3.8838,3.8913,3.894,3.8982,3.9036,3.9038,3.9089,3.9112,3.9166,3.9183,3.9261,3.9274,3.9289,3.9293,3.929,3.9289,3.9314,3.9309,3.9296,3.9295,3.9294,3.9293,0,3.8675,3.8702,3.8788,3.8843,3.8858,3.8912,3.8958,3.9006,3.9028,3.9097,3.9115,3.915,3.9215,3.924,3.9317,3.9329,3.942,3.9417,3.9404,3.9406,3.9457,3.9453,3.9614,3.9637,3.9502,3.9503,3.9504,0,3.874,3.8792,3.8853,3.889,3.892,3.8979,3.9018,3.9038,3.9078,3.9139,3.918,3.9244,3.9297,3.94,3.9434,3.9494,3.9494,3.9546,3.9503,3.95,3.9499,3.9497,3.9504,3.9555,3.9557,3.9558,3.9559,0,3.8852,3.8864,3.892,3.8981,3.9028,3.9077,3.9124,3.9154,3.9182,3.9227,3.9294,3.9335,3.9416,3.9481,3.9543,3.9572,3.9571,3.9572,3.9587,3.9587,3.9579,3.9587,3.9429,3.9568,3.9567,3.9567,3.9566,3.9566,3.8931,3.8979,3.903,3.9093,3.9131,3.9176,3.9224,3.9254,3.931,3.9378,3.9386,3.9459,3.9508,3.9592,3.9624,3.9681,3.9667,3.9689,3.9695,3.9701,3.9706,3.9567,3.9692,3.9691,3.9691,3.9691,3.9691,0,3.9047,3.908,3.9137,3.9205,3.9255,3.9249,3.9302,3.9344,3.9408,3.9454,3.9507,3.9585,3.9648,3.9687,3.975,3.9789,3.979,3.9805,3.9804,3.9812,3.9713,3.9695,3.9804,3.9803,3.9803,3.9803,3.9803,3.9803,3.9113,3.9194,3.9212,3.9312,3.9345,3.9417,3.9448,3.949,3.9527,3.9614,3.9667,3.9692,3.9736,3.9803,3.9861,3.9871,3.9896,3.9912,3.9921,3.983,3.9818,3.9807,3.979,3.9917,3.9917,4.0015,4.0016,4.0017]}]]